Time,TemperatureF,DewpointF,PressureIn,WindDirection,WindDirectionDegrees,WindSpeedMPH,WindSpeedGustMPH,Humidity,HourlyPrecipIn,Conditions,Clouds,dailyrainin,SoftwareType,DateUTC
2013-10-01 00:05:00,44.0,42.0,29.99,ESE,109,0.0,0.0,93,0.00,,,0.00,weatherlink.com 1.10,2013-10-01 04:05:00,
2013-10-01 00:20:00,43.6,42.0,29.99,ESE,109,0.0,0.0,93,0.00,,,0.00,weatherlink.com 1.10,2013-10-01 04:20:00,
2013-10-01 00:35:00,43.4,42.0,29.99,ESE,109,0.0,0.0,93,0.00,,,0.00,weatherlink.com 1.10,2013-10-01 04:35:00,
2013-10-01 00:50:00,43.2,41.0,29.99,ESE,109,0.0,0.0,93,0.00,,,0.00,weatherlink.com 1.10,2013-10-01 04:50:00,
2013-10-01 01:05:00,42.7,41.0,30.00,ESE,109,0.0,0.0,93,0.00,,,0.00,weatherlink.com 1.10,2013-10-01 05:05:00,
2013-10-01 01:20:00,42.4,41.0,30.00,ESE,109,0.0,1.0,93,0.00,,,0.00,weatherlink.com 1.10,2013-10-01 05:20:00,
2013-10-01 01:35:00,42.0,40.0,30.00,ESE,109,0.0,0.0,93,0.00,,,0.00,weatherlink.com 1.10,2013-10-01 05:35:00,
2013-10-01 01:50:00,42.2,41.0,30.00,ESE,109,0.0,1.0,94,0.00,,,0.00,weatherlink.com 1.10,2013-10-01 05:50:00,
2013-10-01 02:05:00,42.5,41.0,30.00,ESE,109,0.0,0.0,94,0.00,,,0.00,weatherlink.com 1.10,2013-10-01 06:05:00,
2013-10-01 02:20:00,42.8,41.0,30.00,ESE,109,0.0,1.0,94,0.00,,,0.00,weatherlink.com 1.10,2013-10-01 06:20:00,
2013-10-01 02:35:00,43.1,42.0,29.99,ESE,109,0.0,0.0,95,0.00,,,0.00,weatherlink.com 1.10,2013-10-01 06:35:00,
2013-10-01 02:50:00,43.2,42.0,29.99,ESE,109,0.0,1.0,95,0.00,,,0.00,weatherlink.com 1.10,2013-10-01 06:50:00,
2013-10-01 03:05:00,43.0,42.0,29.98,ESE,109,0.0,1.0,95,0.00,,,0.00,weatherlink.com 1.10,2013-10-01 07:05:00,
2013-10-01 03:20:00,42.7,41.0,29.98,ESE,109,0.0,1.0,95,0.00,,,0.00,weatherlink.com 1.10,2013-10-01 07:20:00,
2013-10-01 03:35:00,42.7,41.0,29.98,ESE,109,0.0,0.0,95,0.00,,,0.00,weatherlink.com 1.10,2013-10-01 07:35:00,
2013-10-01 03:50:00,42.5,41.0,29.99,ESE,109,0.0,1.0,95,0.00,,,0.00,weatherlink.com 1.10,2013-10-01 07:50:00,
2013-10-01 04:05:00,42.6,42.0,29.99,ESE,109,0.0,0.0,96,0.00,,,0.00,weatherlink.com 1.10,2013-10-01 08:05:00,
2013-10-01 04:21:00,42.4,41.0,29.98,ESE,109,0.0,0.0,96,0.01,,,0.01,weatherlink.com 1.10,2013-10-01 08:21:00,
2013-10-01 04:35:00,42.4,41.0,29.99,ESE,109,0.0,0.0,96,0.01,,,0.01,weatherlink.com 1.10,2013-10-01 08:35:00,
2013-10-01 04:50:00,42.5,42.0,29.99,ESE,109,0.0,1.0,96,0.01,,,0.01,weatherlink.com 1.10,2013-10-01 08:50:00,
2013-10-01 05:06:00,42.5,42.0,29.99,ESE,109,1.0,2.0,96,0.01,,,0.01,weatherlink.com 1.10,2013-10-01 09:06:00,
2013-10-01 05:20:00,42.4,41.0,29.99,ESE,109,0.0,1.0,96,0.00,,,0.01,weatherlink.com 1.10,2013-10-01 09:20:00,
2013-10-01 05:36:00,42.3,41.0,30.00,ESE,109,0.0,0.0,96,0.00,,,0.01,weatherlink.com 1.10,2013-10-01 09:36:00,
2013-10-01 05:51:00,42.4,41.0,30.00,ESE,109,0.0,0.0,96,0.00,,,0.01,weatherlink.com 1.10,2013-10-01 09:51:00,
2013-10-01 06:06:00,42.2,41.0,30.00,ESE,109,0.0,1.0,96,0.00,,,0.01,weatherlink.com 1.10,2013-10-01 10:06:00,
2013-10-01 06:21:00,42.1,41.0,30.00,ESE,109,0.0,0.0,96,0.00,,,0.01,weatherlink.com 1.10,2013-10-01 10:21:00,
2013-10-01 06:36:00,41.9,41.0,30.00,ESE,109,0.0,1.0,96,0.00,,,0.01,weatherlink.com 1.10,2013-10-01 10:36:00,
2013-10-01 06:51:00,41.8,41.0,30.01,ESE,109,0.0,1.0,96,0.00,,,0.01,weatherlink.com 1.10,2013-10-01 10:51:00,
2013-10-01 07:06:00,41.7,41.0,30.01,ESE,109,0.0,1.0,96,0.00,,,0.01,weatherlink.com 1.10,2013-10-01 11:06:00,
2013-10-01 07:21:00,41.8,41.0,30.02,ESE,109,0.0,0.0,96,0.00,,,0.01,weatherlink.com 1.10,2013-10-01 11:21:00,
2013-10-01 07:36:00,41.9,41.0,30.02,ESE,109,0.0,1.0,96,0.00,,,0.01,weatherlink.com 1.10,2013-10-01 11:36:00,
2013-10-01 07:51:00,42.0,41.0,30.02,ESE,109,0.0,1.0,96,0.00,,,0.01,weatherlink.com 1.10,2013-10-01 11:51:00,
2013-10-01 08:06:00,42.5,42.0,30.02,ESE,109,0.0,1.0,97,0.00,,,0.01,weatherlink.com 1.10,2013-10-01 12:06:00,
2013-10-01 08:21:00,43.1,42.0,30.01,ESE,109,0.0,1.0,97,0.00,,,0.01,weatherlink.com 1.10,2013-10-01 12:21:00,
2013-10-01 08:36:00,44.9,44.0,30.02,NNE,19,2.0,2.0,96,0.00,,,0.01,weatherlink.com 1.10,2013-10-01 12:36:00,
2013-10-01 08:51:00,45.7,44.0,30.02,NNE,19,0.0,1.0,94,0.00,,,0.01,weatherlink.com 1.10,2013-10-01 12:51:00,
2013-10-01 09:06:00,46.5,44.0,30.01,SW,227,0.0,3.0,92,0.00,,,0.01,weatherlink.com 1.10,2013-10-01 13:06:00,
2013-10-01 09:21:00,47.8,46.0,30.01,SW,227,0.0,1.0,92,0.00,,,0.01,weatherlink.com 1.10,2013-10-01 13:21:00,
2013-10-01 09:36:00,50.5,48.0,30.00,SW,227,0.0,2.0,90,0.00,,,0.01,weatherlink.com 1.10,2013-10-01 13:36:00,
2013-10-01 09:51:00,53.2,49.0,30.00,SW,227,0.0,1.0,86,0.00,,,0.01,weatherlink.com 1.10,2013-10-01 13:51:00,
2013-10-01 10:06:00,56.1,51.0,29.99,NNW,344,0.0,3.0,83,0.00,,,0.01,weatherlink.com 1.10,2013-10-01 14:06:00,
2013-10-01 10:36:00,62.5,53.0,29.98,NW,317,1.0,5.0,72,0.00,,,0.01,weatherlink.com 1.10,2013-10-01 14:36:00,
2013-10-01 10:51:00,65.4,53.0,29.98,NW,325,4.0,6.0,65,0.00,,,0.01,weatherlink.com 1.10,2013-10-01 14:51:00,
2013-10-01 11:06:00,67.2,52.0,29.98,WNW,296,3.0,6.0,59,0.00,,,0.01,weatherlink.com 1.10,2013-10-01 15:06:00,
2013-10-01 11:22:00,68.1,53.0,29.97,WSW,242,1.0,8.0,59,0.00,,,0.01,weatherlink.com 1.10,2013-10-01 15:22:00,
2013-10-01 11:37:00,69.1,54.0,29.97,North,10,2.0,7.0,58,0.00,,,0.01,weatherlink.com 1.10,2013-10-01 15:37:00,
2013-10-01 11:52:00,69.9,53.0,29.96,SW,232,2.0,8.0,56,0.00,,,0.01,weatherlink.com 1.10,2013-10-01 15:52:00,
2013-10-01 12:07:00,70.1,54.0,29.96,WNW,300,1.0,9.0,56,0.00,,,0.01,weatherlink.com 1.10,2013-10-01 16:07:00,
2013-10-01 12:22:00,71.5,54.0,29.95,West,281,3.0,6.0,54,0.00,,,0.01,weatherlink.com 1.10,2013-10-01 16:22:00,
2013-10-01 12:37:00,71.7,54.0,29.95,WSW,257,3.0,6.0,54,0.00,,,0.01,weatherlink.com 1.10,2013-10-01 16:37:00,
2013-10-01 12:52:00,72.3,54.0,29.94,NW,305,4.0,10.0,52,0.00,,,0.01,weatherlink.com 1.10,2013-10-01 16:52:00,
2013-10-01 13:07:00,73.1,53.0,29.93,NNW,347,4.0,8.0,50,0.00,,,0.01,weatherlink.com 1.10,2013-10-01 17:07:00,
2013-10-01 13:37:00,71.2,54.0,29.93,NW,316,1.0,7.0,55,0.00,,,0.01,weatherlink.com 1.10,2013-10-01 17:37:00,
2013-10-01 13:52:00,71.3,53.0,29.93,WNW,294,4.0,8.0,53,0.00,,,0.01,weatherlink.com 1.10,2013-10-01 17:52:00,
2013-10-01 14:07:00,71.1,54.0,29.92,SSW,194,5.0,11.0,56,0.00,,,0.01,weatherlink.com 1.10,2013-10-01 18:07:00,
2013-10-01 14:37:00,69.9,56.0,29.92,NW,307,3.0,7.0,62,0.00,,,0.01,weatherlink.com 1.10,2013-10-01 18:37:00,
2013-10-01 14:52:00,69.9,56.0,29.91,West,259,2.0,8.0,61,0.00,,,0.01,weatherlink.com 1.10,2013-10-01 18:52:00,
2013-10-01 15:07:00,70.2,56.0,29.91,NNW,344,2.0,6.0,60,0.00,,,0.01,weatherlink.com 1.10,2013-10-01 19:07:00,
2013-10-01 15:22:00,69.8,55.0,29.91,NNW,327,4.0,9.0,60,0.00,,,0.01,weatherlink.com 1.10,2013-10-01 19:22:00,
2013-10-01 15:37:00,69.7,56.0,29.90,NNW,332,0.0,4.0,61,0.00,,,0.01,weatherlink.com 1.10,2013-10-01 19:37:00,
2013-10-01 15:52:00,69.4,56.0,29.90,NW,319,2.0,7.0,62,0.00,,,0.01,weatherlink.com 1.10,2013-10-01 19:52:00,
2013-10-01 16:07:00,69.6,55.0,29.90,North,11,1.0,6.0,61,0.00,,,0.01,weatherlink.com 1.10,2013-10-01 20:07:00,
2013-10-01 16:22:00,70.2,56.0,29.90,NW,314,2.0,6.0,60,0.00,,,0.01,weatherlink.com 1.10,2013-10-01 20:22:00,
2013-10-01 16:37:00,69.9,56.0,29.90,NNW,340,0.0,4.0,61,0.00,,,0.01,weatherlink.com 1.10,2013-10-01 20:37:00,
2013-10-01 16:52:00,70.9,54.0,29.89,NNW,337,5.0,8.0,56,0.00,,,0.01,weatherlink.com 1.10,2013-10-01 20:52:00,
2013-10-01 17:07:00,70.4,54.0,29.90,NNW,330,4.0,8.0,56,0.00,,,0.01,weatherlink.com 1.10,2013-10-01 21:07:00,
2013-10-01 17:22:00,71.0,54.0,29.90,NNE,28,3.0,6.0,55,0.00,,,0.01,weatherlink.com 1.10,2013-10-01 21:22:00,
2013-10-01 17:37:00,70.7,54.0,29.90,NNW,338,0.0,5.0,56,0.00,,,0.01,weatherlink.com 1.10,2013-10-01 21:37:00,
2013-10-01 17:52:00,69.6,54.0,29.90,NNE,19,1.0,4.0,58,0.00,,,0.01,weatherlink.com 1.10,2013-10-01 21:52:00,
2013-10-01 18:07:00,68.2,55.0,29.90,North,5,0.0,1.0,63,0.00,,,0.01,weatherlink.com 1.10,2013-10-01 22:07:00,
2013-10-01 18:22:00,66.1,55.0,29.91,North,5,0.0,1.0,67,0.00,,,0.01,weatherlink.com 1.10,2013-10-01 22:22:00,
2013-10-01 18:37:00,64.2,55.0,29.91,North,5,0.0,0.0,73,0.00,,,0.01,weatherlink.com 1.10,2013-10-01 22:37:00,
2013-10-01 18:52:00,62.2,55.0,29.91,North,5,0.0,0.0,76,0.00,,,0.01,weatherlink.com 1.10,2013-10-01 22:52:00,
2013-10-01 19:07:00,60.4,54.0,29.91,North,5,0.0,0.0,80,0.00,,,0.01,weatherlink.com 1.10,2013-10-01 23:07:00,
2013-10-01 19:22:00,59.0,54.0,29.92,North,5,0.0,0.0,83,0.00,,,0.01,weatherlink.com 1.10,2013-10-01 23:22:00,
2013-10-01 19:37:00,57.8,53.0,29.93,North,5,0.0,0.0,85,0.00,,,0.01,weatherlink.com 1.10,2013-10-01 23:37:00,
2013-10-01 19:52:00,56.7,53.0,29.93,North,5,0.0,0.0,87,0.00,,,0.01,weatherlink.com 1.10,2013-10-01 23:52:00,
2013-10-01 20:07:00,55.6,52.0,29.93,North,5,0.0,2.0,88,0.00,,,0.01,weatherlink.com 1.10,2013-10-02 00:07:00,
2013-10-01 20:22:00,54.9,52.0,29.93,North,5,0.0,1.0,89,0.00,,,0.01,weatherlink.com 1.10,2013-10-02 00:22:00,
2013-10-01 20:37:00,54.2,51.0,29.94,North,5,0.0,0.0,90,0.00,,,0.01,weatherlink.com 1.10,2013-10-02 00:37:00,
2013-10-01 20:52:00,53.3,51.0,29.94,North,5,0.0,1.0,91,0.00,,,0.01,weatherlink.com 1.10,2013-10-02 00:52:00,
2013-10-01 21:07:00,52.7,50.0,29.94,North,5,0.0,0.0,91,0.00,,,0.01,weatherlink.com 1.10,2013-10-02 01:07:00,
2013-10-01 21:22:00,52.4,50.0,29.94,North,5,0.0,1.0,92,0.00,,,0.01,weatherlink.com 1.10,2013-10-02 01:22:00,
2013-10-01 21:37:00,51.9,50.0,29.94,North,5,0.0,1.0,92,0.00,,,0.01,weatherlink.com 1.10,2013-10-02 01:37:00,
2013-10-01 21:52:00,51.3,49.0,29.94,North,5,0.0,0.0,92,0.00,,,0.01,weatherlink.com 1.10,2013-10-02 01:52:00,
2013-10-01 22:07:00,51.0,49.0,29.94,North,5,0.0,0.0,92,0.00,,,0.01,weatherlink.com 1.10,2013-10-02 02:07:00,
2013-10-01 22:22:00,50.5,48.0,29.94,North,5,0.0,0.0,92,0.00,,,0.01,weatherlink.com 1.10,2013-10-02 02:22:00,
2013-10-01 22:37:00,50.0,48.0,29.94,North,5,0.0,0.0,93,0.00,,,0.01,weatherlink.com 1.10,2013-10-02 02:37:00,
2013-10-01 22:52:00,49.7,48.0,29.95,North,5,0.0,0.0,92,0.00,,,0.01,weatherlink.com 1.10,2013-10-02 02:52:00,
2013-10-01 23:07:00,49.2,47.0,29.94,North,5,0.0,0.0,92,0.00,,,0.01,weatherlink.com 1.10,2013-10-02 03:07:00,
2013-10-01 23:22:00,48.8,47.0,29.94,North,5,0.0,0.0,92,0.00,,,0.01,weatherlink.com 1.10,2013-10-02 03:22:00,
2013-10-01 23:37:00,48.3,46.0,29.94,North,5,0.0,0.0,93,0.00,,,0.01,weatherlink.com 1.10,2013-10-02 03:37:00,
2013-10-01 23:52:00,48.0,46.0,29.94,North,5,0.0,0.0,93,0.00,,,0.01,weatherlink.com 1.10,2013-10-02 03:52:00,